Saturday, October 25, 2014
08:50 UTC
  |  Log In   |  Register Free
Airport Search:

Clinton-Sampson County Airport
(KCTZ)

Clinton-Sampson County Airport Diagram
No Airport Diagram Available

FAA data valid effective September 18, 2014 - November 13, 2014 (unless otherwise noted).

 
 
 
 
 
 
 
 
 
 
 
 
 
 

Current Aviation Weather for Clinton-Sampson County Airport (KCTZ)

The most recent METAR observation for KCTZ was updated at: 0808
METAR Summary (Translated METAR)
KCTZ
250755Z AUTO 00000KT 10SM CLR 07/07 A2997 RMK AO2 T00700070
KDPL
250755Z AUTO 00000KT 7SM CLR 06/06 A2998 RMK AO2 T00560055
(18.9 nm NE from KCTZ)
KEYF
250755Z AUTO 00000KT 10SM CLR 08/07 A2997 RMK AO2 T00810069
(24.8 nm SW from KCTZ)
TAF
No TAF information found within 50 nm of KCTZ
  Airport Weather Conditions for KCTZ

 Current Weather at CTZ
45° F
Fair
North winds at 0.0 mph
CTZ NOAA Radar

Pressure: 29.97 in
Humidity: 100%
Wind: Calm
Dew Point: 44.6°F
Visibility: 7.00 mi


Airport Weather Forecast for KCTZ

Translated METAR and TAF for KCTZ
Translated METAR for KCTZ (0845 UTC 25 October 2014)
found at http://aviationweather.gov/adds/metars/
 
METAR text: KCTZ 250835Z AUTO 00000KT 10SM CLR 07/07 A2997 RMK AO2 T00660066
Conditions at: KCTZ (CLINTON , NC, US) observed 0835 UTC 25 October 2014
Temperature: 6.6°C (44°F)
Dewpoint: 6.6°C (44°F) [RH = 100%]
Pressure (altimeter): 29.97 inches Hg (1015.0 mb)
Winds: calm
Visibility: 10 or more miles (16+ km)
Ceiling: at least 12,000 feet AGL
Clouds: sky clear below 12,000 feet AGL
Weather: automated observation with no human augmentation;
there may or may not be significant weather present at this time
Translated TAF for KCTZ

There is no translated TAF available for this airport

Find All Airport Services Find A Hotel Find A Rental Car Find A Golf Course Find A Restaurant $100 Hamburger



FBO's on the Field
FBO Company Facility Photos Services Transportation Aviation Fuel Prices: Prices include tax
Catering Weather Repair Courtesy Rental Type 100LL JetA JetA+ MOGAS 8087
 
Clinton Flying Service

This FBO has not yet been rated
FS:Shell
Last Updated: Oct-07
Login to update fuel prices
SS:
Contact Clinton Flying ServiceMore FBO Information
 
Add another FBO Facility Photos Catering Weather Repair Courtesy Rental Type 100LL JetA JetA+ MOGAS 8087
Services Transportation Aviation Fuel Prices: Prices include tax


model-print
model-print
model-print
model-print